This demonstration page uses our WeatherBlox Daily Observations layout. Learn more.

Left ArrowRight Arrow

34.02893, -84.19858

Hourly Observations for October 14, 2015

Temp ( °F °C ) Dew Point ( °F °C ) Humidity (%) Winds ( mph kmh ) Pressure ( in mb ) Visibility ( mi km ) Precip ( " mm )
12:53 am 00:53 Clear 60 15.6 47 8.3 62 62 NW 7 11 29.89 1012 10 16 0.00 0.00
1:53 am 01:53 Clear 59 15 47 8.3 64 64 NW 6 9 29.88 1012 10 16 0.00 0.00
2:53 am 02:53 Clear 59 15 47 8.3 64 64 NW 8 13 29.88 1012 10 16 0.00 0.00
3:53 am 03:53 Clear 56 13.3 47 8.3 72 72 WNW 5 7 29.89 1012 10 16 0.00 0.00
4:53 am 04:53 Clear 54 12.2 47 8.3 77 77 W 3 6 29.89 1012 10 16 0.00 0.00
5:53 am 05:53 Clear 51 10.6 47 8.3 86 86 SSW 3 6 29.92 1013 10 16 0.00 0.00
6:53 am 06:53 Clear 50 10 48 8.9 93 93 Calm 29.94 1014 10 16 0.00 0.00
7:53 am 07:53 Sunny 49 9.4 47 8.3 93 93 Calm 29.96 1015 10 16 0.00 0.00
8:53 am 08:53 Sunny 57 13.9 48 8.9 72 72 W 6 9 29.98 1015 10 16 0.00 0.00
9:53 am 09:53 Sunny 63 17.2 50 10 63 63 WNW 7 11 29.99 1016 10 16 0.00 0.00
10:53 am 10:53 Sunny 67 19.4 49 9.4 53 53 NW 8 13 30.00 1016 10 16 0.00 0.00
11:53 am 11:53 Sunny 71 21.7 48 8.9 44 44 WNW 13 20 30.00 1016 10 16 0.00 0.00
12:53 pm 12:53 Sunny 72 22.2 45 7.2 38 38 NW 13 20 30.00 1016 10 16 0.00 0.00
1:53 pm 13:53 Sunny 73 22.8 44 6.7 35 35 NW 14 22 29.98 1015 10 16 0.00 0.00
2:53 pm 14:53 Sunny 75 23.9 46 7.8 36 36 NW 8 13 29.97 1015 10 16 0.00 0.00
3:53 pm 15:53 Sunny 76 24.4 47 8.3 36 36 NW 10 17 29.97 1015 10 16 0.00 0.00
4:53 pm 16:53 Sunny 76 24.4 47 8.3 36 36 WNW 8 13 29.96 1015 10 16 0.00 0.00
5:53 pm 17:53 Sunny 74 23.3 47 8.3 38 38 W 9 15 29.97 1015 10 16 0.00 0.00
6:53 pm 18:53 Sunny 71 21.7 48 8.9 44 44 W 7 11 29.99 1016 10 16 0.00 0.00
7:53 pm 19:53 Clear 64 17.8 51 10.6 63 63 WNW 3 6 30.02 1017 10 16 0.00 0.00
8:53 pm 20:53 Clear 58 14.4 52 11.1 81 81 Calm 30.04 1017 10 16 0.00 0.00
9:53 pm 21:53 Clear 58 14.4 53 11.7 84 84 Calm 30.04 1017 10 16 0.00 0.00
10:53 pm 22:53 Clear 56 13.3 54 12.2 93 93 Calm 30.04 1017 10 16 0.00 0.00
11:53 pm 23:53 Clear 54 12.2 52 11.1 93 93 Calm 30.04 1017 10 16 0.00 0.00

Powered by AerisWeather